Location: Austin
(30.3000°N, 97.7500°W)
Time: 13:01:07
(UTC-05:00)

ADEOS - Pass Details

Date: 08 April 2026
Orbit: 790 x 791 km, 98.8° (Epoch: 11 April)

Event Time Altitude Azimuth Distance (km) Brightness Sun altitude
Exits shadow 22:04:33 66° 22° (NNE) 859 3.6 -27.4°
Drops below altitude 10° 22:09:07 10° 351° (N) 2,356 6.4 -28.3°
Sets 22:11:27 0° 350° (N) 3,288 7.3 -28.7°
